Voltar ao catálogo

STARLINK-35557

AtivoComunicaçõesVLEO
NORAD 66237·PAYLOAD·🇺🇸 United States

Lançado Oct 29, 2025 de Cape Canaveral Space Force Station

Loading…

Próximas Passagens (próximas 24 horas)

TLE

AtualizadoSource: CelesTrak SupGP

Época: Sep 14, 2026, 23:02 UTC

1 66237C 25245D   26257.96020833 -.00035919  00000+0 -10614-2 0  2574
2 66237  53.1572 119.9471 0001261  89.0696 229.6563 15.34403022    17

Acompanhe STARLINK-35557 em tempo real com AllMySat

Download on the App Store